Time,TemperatureF,DewpointF,PressureIn,WindDirection,WindDirectionDegrees,WindSpeedMPH,WindSpeedGustMPH,Humidity,HourlyPrecipIn,Conditions,Clouds,dailyrainin,SolarRadiationWatts/m^2,SoftwareType,DateUTC
2013-01-04 00:04:00,37.7,33.0,31.18,ENE,68,0.0,0.0,83,0.00,,,0.00,0,Wunderground v.1.15,2013-01-04 08:04:00,
2013-01-04 00:10:00,37.5,32.8,31.18,ENE,68,0.0,0.0,83,0.00,,,0.00,0,Wunderground v.1.15,2013-01-04 08:10:00,
2013-01-04 00:16:00,37.3,32.9,31.17,ENE,68,0.0,0.0,84,0.00,,,0.00,0,Wunderground v.1.15,2013-01-04 08:16:00,
2013-01-04 00:22:00,37.1,32.7,31.17,ENE,68,0.0,0.0,84,0.00,,,0.00,0,Wunderground v.1.15,2013-01-04 08:22:00,
2013-01-04 00:28:00,37.0,32.6,31.17,ENE,68,0.0,0.0,84,0.00,,,0.00,0,Wunderground v.1.15,2013-01-04 08:28:00,
2013-01-04 00:34:00,37.0,32.6,31.17,ENE,68,0.0,0.0,84,0.00,,,0.00,0,Wunderground v.1.15,2013-01-04 08:34:00,
2013-01-04 00:40:00,37.2,32.8,31.17,ENE,68,0.0,0.0,84,0.00,,,0.00,0,Wunderground v.1.15,2013-01-04 08:40:00,
2013-01-04 00:46:00,37.4,33.3,31.17,ENE,68,0.0,0.0,85,0.00,,,0.00,0,Wunderground v.1.15,2013-01-04 08:46:00,
2013-01-04 00:52:00,37.4,33.3,31.17,ENE,68,0.0,0.0,85,0.00,,,0.00,0,Wunderground v.1.15,2013-01-04 08:52:00,
2013-01-04 00:58:00,37.4,33.3,31.17,ENE,68,0.0,0.0,85,0.00,,,0.00,0,Wunderground v.1.15,2013-01-04 08:58:00,
2013-01-04 01:04:00,37.4,33.3,31.17,ENE,68,0.0,0.0,85,0.00,,,0.00,0,Wunderground v.1.15,2013-01-04 09:04:00,
2013-01-04 01:10:00,37.4,33.3,31.17,ENE,68,0.0,0.0,85,0.00,,,0.00,0,Wunderground v.1.15,2013-01-04 09:10:00,
2013-01-04 01:16:00,37.2,33.1,31.17,ENE,68,0.0,0.0,85,0.00,,,0.00,0,Wunderground v.1.15,2013-01-04 09:16:00,
2013-01-04 01:22:00,37.0,32.9,31.18,ENE,68,0.0,0.0,85,0.00,,,0.00,0,Wunderground v.1.15,2013-01-04 09:22:00,
2013-01-04 01:28:00,36.9,32.8,31.18,ENE,68,0.0,0.0,85,0.00,,,0.00,0,Wunderground v.1.15,2013-01-04 09:28:00,
2013-01-04 01:34:00,36.7,32.6,31.17,ENE,68,0.0,0.0,85,0.00,,,0.00,0,Wunderground v.1.15,2013-01-04 09:34:00,
2013-01-04 01:40:00,36.5,32.4,31.18,ENE,68,0.0,0.0,85,0.00,,,0.00,0,Wunderground v.1.15,2013-01-04 09:40:00,
2013-01-04 01:46:00,36.3,32.2,31.18,ENE,68,0.0,0.0,85,0.00,,,0.00,0,Wunderground v.1.15,2013-01-04 09:46:00,
2013-01-04 01:52:00,36.2,32.1,31.17,ENE,68,0.0,0.0,85,0.00,,,0.00,0,Wunderground v.1.15,2013-01-04 09:52:00,
2013-01-04 01:58:00,36.3,32.2,31.18,ENE,68,0.0,0.0,85,0.00,,,0.00,0,Wunderground v.1.15,2013-01-04 09:58:00,
2013-01-04 02:04:00,36.4,32.3,31.18,ENE,68,0.0,0.0,85,0.00,,,0.00,0,Wunderground v.1.15,2013-01-04 10:04:00,
2013-01-04 02:10:00,36.4,32.3,31.18,ENE,68,0.0,0.0,85,0.00,,,0.00,0,Wunderground v.1.15,2013-01-04 10:10:00,
2013-01-04 02:16:00,36.3,32.2,31.18,ENE,68,0.0,0.0,85,0.00,,,0.00,0,Wunderground v.1.15,2013-01-04 10:16:00,
2013-01-04 02:22:00,36.3,32.5,31.17,ENE,68,0.0,0.0,86,0.00,,,0.00,0,Wunderground v.1.15,2013-01-04 10:22:00,
2013-01-04 02:28:00,36.4,32.6,31.17,ENE,68,0.0,0.0,86,0.00,,,0.00,0,Wunderground v.1.15,2013-01-04 10:28:00,
2013-01-04 02:34:00,36.4,32.6,31.17,ENE,68,0.0,0.0,86,0.00,,,0.00,0,Wunderground v.1.15,2013-01-04 10:34:00,
2013-01-04 02:40:00,36.3,32.5,31.17,ENE,68,0.0,0.0,86,0.00,,,0.00,0,Wunderground v.1.15,2013-01-04 10:40:00,
2013-01-04 02:46:00,36.2,32.4,31.17,ENE,68,0.0,0.0,86,0.00,,,0.00,0,Wunderground v.1.15,2013-01-04 10:46:00,
2013-01-04 02:52:00,36.2,32.4,31.18,ENE,68,0.0,0.0,86,0.00,,,0.00,0,Wunderground v.1.15,2013-01-04 10:52:00,
2013-01-04 02:58:00,36.1,32.3,31.17,ENE,68,0.0,0.0,86,0.00,,,0.00,0,Wunderground v.1.15,2013-01-04 10:58:00,
2013-01-04 03:04:00,36.2,32.4,31.17,ENE,68,0.0,0.0,86,0.00,,,0.00,0,Wunderground v.1.15,2013-01-04 11:04:00,
2013-01-04 03:10:00,36.2,32.4,31.17,ENE,68,0.0,0.0,86,0.00,,,0.00,0,Wunderground v.1.15,2013-01-04 11:10:00,
2013-01-04 03:16:00,36.2,32.4,31.17,ENE,68,0.0,0.0,86,0.00,,,0.00,0,Wunderground v.1.15,2013-01-04 11:16:00,
2013-01-04 03:22:00,36.1,32.3,31.17,ENE,68,0.0,0.0,86,0.00,,,0.00,0,Wunderground v.1.15,2013-01-04 11:22:00,
2013-01-04 03:28:00,36.0,32.2,31.17,ENE,68,0.0,0.0,86,0.00,,,0.00,0,Wunderground v.1.15,2013-01-04 11:28:00,
2013-01-04 03:34:00,35.8,32.0,31.17,ENE,68,0.0,0.0,86,0.00,,,0.00,0,Wunderground v.1.15,2013-01-04 11:34:00,
2013-01-04 03:40:00,35.6,31.8,31.18,ENE,68,0.0,0.0,86,0.00,,,0.00,0,Wunderground v.1.15,2013-01-04 11:40:00,
2013-01-04 03:46:00,35.4,31.6,31.17,ENE,68,0.0,0.0,86,0.00,,,0.00,0,Wunderground v.1.15,2013-01-04 11:46:00,
2013-01-04 03:52:00,35.2,31.4,31.18,ENE,68,0.0,0.0,86,0.00,,,0.00,0,Wunderground v.1.15,2013-01-04 11:52:00,
2013-01-04 03:58:00,35.0,31.2,31.18,ENE,68,0.0,0.0,86,0.00,,,0.00,0,Wunderground v.1.15,2013-01-04 11:58:00,
2013-01-04 04:04:00,35.0,31.2,31.18,ENE,68,0.0,0.0,86,0.00,,,0.00,0,Wunderground v.1.15,2013-01-04 12:04:00,
2013-01-04 04:10:00,35.3,33.2,31.17,ENE,68,0.0,0.0,92,0.00,,,0.00,0,Wunderground v.1.15,2013-01-04 12:10:00,
2013-01-04 04:16:00,35.4,31.9,31.17,ENE,68,0.0,0.0,87,0.00,,,0.00,0,Wunderground v.1.15,2013-01-04 12:16:00,
2013-01-04 04:22:00,35.5,32.0,31.17,ENE,68,0.0,0.0,87,0.00,,,0.00,0,Wunderground v.1.15,2013-01-04 12:22:00,
2013-01-04 04:28:00,35.7,32.2,31.17,ENE,68,0.0,0.0,87,0.00,,,0.00,0,Wunderground v.1.15,2013-01-04 12:28:00,
2013-01-04 04:34:00,35.7,32.2,31.17,ENE,68,0.0,0.0,87,0.00,,,0.00,0,Wunderground v.1.15,2013-01-04 12:34:00,
2013-01-04 04:40:00,35.8,32.3,31.16,ENE,68,0.0,0.0,87,0.00,,,0.00,0,Wunderground v.1.15,2013-01-04 12:40:00,
2013-01-04 04:46:00,35.8,32.3,31.16,ENE,68,0.0,0.0,87,0.00,,,0.00,0,Wunderground v.1.15,2013-01-04 12:46:00,
2013-01-04 04:52:00,35.9,32.4,31.16,ENE,68,0.0,0.0,87,0.00,,,0.00,0,Wunderground v.1.15,2013-01-04 12:52:00,
2013-01-04 04:58:00,36.3,32.8,31.16,ENE,68,0.0,0.0,87,0.00,,,0.00,0,Wunderground v.1.15,2013-01-04 12:58:00,
2013-01-04 05:04:00,36.8,33.3,31.16,ENE,68,0.0,0.0,87,0.00,,,0.00,0,Wunderground v.1.15,2013-01-04 13:04:00,
2013-01-04 05:10:00,36.8,33.3,31.16,ENE,68,0.0,0.0,87,0.00,,,0.00,0,Wunderground v.1.15,2013-01-04 13:10:00,
2013-01-04 05:16:00,36.8,33.3,31.17,ENE,68,0.0,0.0,87,0.00,,,0.00,0,Wunderground v.1.15,2013-01-04 13:16:00,
2013-01-04 05:22:00,36.6,33.1,31.16,ENE,68,0.0,0.0,87,0.00,,,0.00,0,Wunderground v.1.15,2013-01-04 13:22:00,
2013-01-04 05:28:00,36.5,33.0,31.17,ENE,68,0.0,0.0,87,0.00,,,0.00,0,Wunderground v.1.15,2013-01-04 13:28:00,
2013-01-04 05:34:00,36.5,33.0,31.17,ENE,68,0.0,0.0,87,0.00,,,0.00,0,Wunderground v.1.15,2013-01-04 13:34:00,
2013-01-04 05:40:00,36.4,32.9,31.16,ENE,68,0.0,0.0,87,0.00,,,0.00,0,Wunderground v.1.15,2013-01-04 13:40:00,
2013-01-04 05:46:00,36.4,32.9,31.17,ENE,68,0.0,0.0,87,0.00,,,0.00,0,Wunderground v.1.15,2013-01-04 13:46:00,
2013-01-04 05:52:00,36.3,32.8,31.17,ENE,68,0.0,0.0,87,0.00,,,0.00,0,Wunderground v.1.15,2013-01-04 13:52:00,
2013-01-04 05:58:00,36.4,32.9,31.17,ENE,68,0.0,0.0,87,0.00,,,0.00,0,Wunderground v.1.15,2013-01-04 13:58:00,
2013-01-04 06:04:00,36.7,33.5,31.17,ENE,68,0.0,0.0,88,0.00,,,0.00,0,Wunderground v.1.15,2013-01-04 14:04:00,
2013-01-04 06:10:00,37.0,33.8,31.17,ENE,68,0.0,0.0,88,0.00,,,0.00,0,Wunderground v.1.15,2013-01-04 14:10:00,
2013-01-04 06:16:00,37.3,34.1,31.17,ENE,68,0.0,0.0,88,0.00,,,0.00,0,Wunderground v.1.15,2013-01-04 14:16:00,
2013-01-04 06:22:00,37.5,34.3,31.17,ENE,68,0.0,0.0,88,0.00,,,0.00,0,Wunderground v.1.15,2013-01-04 14:22:00,
2013-01-04 06:28:00,37.7,34.5,31.17,ENE,68,0.0,0.0,88,0.00,,,0.00,0,Wunderground v.1.15,2013-01-04 14:28:00,
2013-01-04 06:34:00,37.5,34.3,31.17,ENE,68,0.0,0.0,88,0.00,,,0.00,0,Wunderground v.1.15,2013-01-04 14:34:00,
2013-01-04 06:40:00,37.3,34.1,31.18,ENE,68,0.0,0.0,88,0.00,,,0.00,0,Wunderground v.1.15,2013-01-04 14:40:00,
2013-01-04 06:46:00,37.2,34.0,31.18,ENE,68,0.0,0.0,88,0.00,,,0.00,0,Wunderground v.1.15,2013-01-04 14:46:00,
2013-01-04 06:52:00,37.1,33.9,31.18,ENE,68,0.0,0.0,88,0.00,,,0.00,0,Wunderground v.1.15,2013-01-04 14:52:00,
2013-01-04 06:58:00,37.0,33.5,31.18,ENE,68,0.0,0.0,87,0.00,,,0.00,0,Wunderground v.1.15,2013-01-04 14:58:00,
2013-01-04 07:04:00,37.1,33.9,31.18,ENE,68,0.0,0.0,88,0.00,,,0.00,0,Wunderground v.1.15,2013-01-04 15:04:00,
2013-01-04 07:10:00,37.1,33.9,31.18,ENE,68,0.0,0.0,88,0.00,,,0.00,0,Wunderground v.1.15,2013-01-04 15:10:00,
2013-01-04 07:16:00,37.3,34.1,31.18,ENE,68,0.0,0.0,88,0.00,,,0.00,0,Wunderground v.1.15,2013-01-04 15:16:00,
2013-01-04 07:22:00,37.3,34.1,31.19,ENE,68,0.0,0.0,88,0.00,,,0.00,5,Wunderground v.1.15,2013-01-04 15:22:00,
2013-01-04 07:28:00,37.2,34.0,31.19,ENE,68,0.0,0.0,88,0.00,,,0.00,7,Wunderground v.1.15,2013-01-04 15:28:00,
2013-01-04 07:34:00,36.9,33.4,31.18,ENE,68,0.0,0.0,87,0.00,,,0.00,9,Wunderground v.1.15,2013-01-04 15:34:00,
2013-01-04 07:40:00,36.7,33.2,31.19,ENE,68,0.0,0.0,87,0.00,,,0.00,14,Wunderground v.1.15,2013-01-04 15:40:00,
2013-01-04 07:46:00,36.5,33.0,31.18,ENE,68,0.0,0.0,87,0.00,,,0.00,19,Wunderground v.1.15,2013-01-04 15:46:00,
2013-01-04 07:52:00,36.3,32.8,31.18,ENE,68,0.0,0.0,87,0.00,,,0.00,23,Wunderground v.1.15,2013-01-04 15:52:00,
2013-01-04 07:58:00,36.2,32.7,31.18,ENE,68,0.0,0.0,87,0.00,,,0.00,44,Wunderground v.1.15,2013-01-04 15:58:00,
2013-01-04 08:06:00,36.2,33.0,31.19,ENE,68,0.0,0.0,88,0.00,,,0.00,72,Wunderground v.1.15,2013-01-04 16:06:00,
2013-01-04 08:12:00,36.4,33.2,31.19,ENE,68,0.0,0.0,88,0.00,,,0.00,90,Wunderground v.1.15,2013-01-04 16:12:00,
2013-01-04 08:18:00,36.9,33.7,31.19,ENE,68,0.0,0.0,88,0.00,,,0.00,107,Wunderground v.1.15,2013-01-04 16:18:00,
2013-01-04 08:24:00,37.4,34.2,31.19,ENE,68,0.0,0.0,88,0.00,,,0.00,125,Wunderground v.1.15,2013-01-04 16:24:00,
2013-01-04 08:30:00,37.9,34.7,31.19,ENE,68,0.0,0.0,88,0.00,,,0.00,142,Wunderground v.1.15,2013-01-04 16:30:00,
2013-01-04 08:36:00,38.6,35.6,31.19,ENE,68,0.0,0.0,89,0.00,,,0.00,163,Wunderground v.1.15,2013-01-04 16:36:00,
2013-01-04 08:42:00,39.2,36.2,31.19,ENE,68,0.0,0.0,89,0.00,,,0.00,183,Wunderground v.1.15,2013-01-04 16:42:00,
2013-01-04 08:48:00,40.0,37.0,31.19,ENE,68,0.0,0.0,89,0.00,,,0.00,200,Wunderground v.1.15,2013-01-04 16:48:00,
2013-01-04 08:54:00,40.8,37.8,31.19,ENE,68,0.0,0.0,89,0.00,,,0.00,220,Wunderground v.1.15,2013-01-04 16:54:00,
2013-01-04 09:00:00,41.8,38.8,31.19,ENE,68,0.0,1.0,89,0.00,,,0.00,239,Wunderground v.1.15,2013-01-04 17:00:00,
2013-01-04 09:06:00,43.6,39.4,31.20,ENE,68,0.0,1.0,85,0.00,,,0.00,258,Wunderground v.1.15,2013-01-04 17:06:00,
2013-01-04 09:12:00,44.5,39.3,31.20,ENE,68,0.0,0.0,82,0.00,,,0.00,272,Wunderground v.1.15,2013-01-04 17:12:00,
2013-01-04 09:18:00,45.2,38.7,31.20,ENE,68,0.0,0.0,78,0.00,,,0.00,288,Wunderground v.1.15,2013-01-04 17:18:00,
2013-01-04 09:24:00,45.6,38.5,31.20,ENE,68,0.0,1.0,76,0.00,,,0.00,302,Wunderground v.1.15,2013-01-04 17:24:00,
2013-01-04 09:30:00,46.1,38.3,31.21,ENE,68,0.0,0.0,74,0.00,,,0.00,316,Wunderground v.1.15,2013-01-04 17:30:00,
2013-01-04 09:36:00,46.7,38.5,31.21,ENE,68,0.0,0.0,73,0.00,,,0.00,329,Wunderground v.1.15,2013-01-04 17:36:00,
2013-01-04 09:42:00,46.9,37.6,31.21,ENE,68,0.0,1.0,70,0.00,,,0.00,341,Wunderground v.1.15,2013-01-04 17:42:00,
2013-01-04 09:48:00,47.2,37.5,31.21,ENE,68,0.0,1.0,69,0.00,,,0.00,353,Wunderground v.1.15,2013-01-04 17:48:00,
2013-01-04 09:54:00,47.6,38.3,31.21,ENE,68,0.0,0.0,70,0.00,,,0.00,366,Wunderground v.1.15,2013-01-04 17:54:00,
2013-01-04 10:00:00,48.1,38.4,31.21,ENE,68,0.0,0.0,69,0.00,,,0.00,383,Wunderground v.1.15,2013-01-04 18:00:00,
2013-01-04 10:06:00,48.3,38.2,31.21,ENE,68,1.0,2.0,68,0.00,,,0.00,394,Wunderground v.1.15,2013-01-04 18:06:00,
2013-01-04 10:12:00,48.6,37.7,31.21,ENE,68,1.0,1.0,66,0.00,,,0.00,413,Wunderground v.1.15,2013-01-04 18:12:00,
2013-01-04 10:18:00,48.6,37.7,31.21,ENE,68,1.0,1.0,66,0.00,,,0.00,441,Wunderground v.1.15,2013-01-04 18:18:00,
2013-01-04 10:24:00,49.4,38.1,31.20,ENE,68,0.0,1.0,65,0.00,,,0.00,373,Wunderground v.1.15,2013-01-04 18:24:00,
2013-01-04 10:30:00,49.3,38.0,31.20,ENE,68,0.0,0.0,65,0.00,,,0.00,360,Wunderground v.1.15,2013-01-04 18:30:00,
2013-01-04 10:36:00,50.1,38.0,31.20,ENE,68,0.0,0.0,63,0.00,,,0.00,446,Wunderground v.1.15,2013-01-04 18:36:00,
2013-01-04 10:42:00,50.5,38.8,31.20,ENE,68,0.0,0.0,64,0.00,,,0.00,410,Wunderground v.1.15,2013-01-04 18:42:00,
2013-01-04 10:48:00,50.9,38.3,31.20,ENE,68,0.0,0.0,62,0.00,,,0.00,422,Wunderground v.1.15,2013-01-04 18:48:00,
2013-01-04 10:54:00,51.5,38.5,31.19,ENE,68,0.0,0.0,61,0.00,,,0.00,459,Wunderground v.1.15,2013-01-04 18:54:00,
2013-01-04 11:00:00,51.5,37.2,31.19,ENE,68,0.0,0.0,58,0.00,,,0.00,471,Wunderground v.1.15,2013-01-04 19:00:00,
2013-01-04 11:06:00,52.0,37.7,31.19,ENE,68,1.0,3.0,58,0.00,,,0.00,478,Wunderground v.1.15,2013-01-04 19:06:00,
2013-01-04 11:12:00,52.4,37.2,31.18,ENE,68,1.0,1.0,56,0.00,,,0.00,487,Wunderground v.1.15,2013-01-04 19:12:00,
2013-01-04 11:18:00,53.2,37.9,31.18,ENE,68,0.0,1.0,56,0.00,,,0.00,492,Wunderground v.1.15,2013-01-04 19:18:00,
2013-01-04 11:24:00,53.3,37.5,31.18,ENE,68,0.0,0.0,55,0.00,,,0.00,497,Wunderground v.1.15,2013-01-04 19:24:00,
2013-01-04 11:30:00,53.5,37.3,31.17,ENE,68,0.0,0.0,54,0.00,,,0.00,503,Wunderground v.1.15,2013-01-04 19:30:00,
2013-01-04 11:36:00,53.8,38.0,31.17,ENE,68,0.0,2.0,55,0.00,,,0.00,506,Wunderground v.1.15,2013-01-04 19:36:00,
2013-01-04 11:42:00,54.1,38.3,31.16,ENE,68,1.0,1.0,55,0.00,,,0.00,508,Wunderground v.1.15,2013-01-04 19:42:00,
2013-01-04 11:48:00,54.6,37.8,31.16,ENE,68,0.0,1.0,53,0.00,,,0.00,512,Wunderground v.1.15,2013-01-04 19:48:00,
2013-01-04 11:54:00,55.1,37.8,31.16,ENE,68,1.0,2.0,52,0.00,,,0.00,513,Wunderground v.1.15,2013-01-04 19:54:00,
2013-01-04 12:00:00,54.9,37.6,31.16,ENE,68,1.0,1.0,52,0.00,,,0.00,513,Wunderground v.1.15,2013-01-04 20:00:00,
2013-01-04 12:06:00,55.0,37.7,31.15,ENE,68,0.0,1.0,52,0.00,,,0.00,515,Wunderground v.1.15,2013-01-04 20:06:00,
2013-01-04 12:12:00,55.3,38.0,31.15,ENE,68,1.0,3.0,52,0.00,,,0.00,519,Wunderground v.1.15,2013-01-04 20:12:00,
2013-01-04 12:18:00,55.4,37.6,31.15,ENE,68,1.0,3.0,51,0.00,,,0.00,517,Wunderground v.1.15,2013-01-04 20:18:00,
2013-01-04 12:24:00,55.5,36.6,31.14,ENE,68,1.0,1.0,49,0.00,,,0.00,520,Wunderground v.1.15,2013-01-04 20:24:00,
2013-01-04 12:30:00,55.7,36.8,31.14,ENE,63,1.0,2.0,49,0.00,,,0.00,519,Wunderground v.1.15,2013-01-04 20:30:00,
2013-01-04 12:36:00,55.6,36.2,31.14,ENE,61,2.0,2.0,48,0.00,,,0.00,517,Wunderground v.1.15,2013-01-04 20:36:00,
2013-01-04 12:42:00,55.9,36.5,31.14,NE,46,1.0,3.0,48,0.00,,,0.00,515,Wunderground v.1.15,2013-01-04 20:42:00,
2013-01-04 12:48:00,55.5,37.1,31.13,NNE,27,2.0,3.0,50,0.00,,,0.00,513,Wunderground v.1.15,2013-01-04 20:48:00,
2013-01-04 12:54:00,55.9,37.5,31.13,NNE,26,1.0,2.0,50,0.00,,,0.00,510,Wunderground v.1.15,2013-01-04 20:54:00,
2013-01-04 13:00:00,56.2,37.8,31.13,NNE,27,1.0,1.0,50,0.00,,,0.00,506,Wunderground v.1.15,2013-01-04 21:00:00,
2013-01-04 13:06:00,56.5,37.6,31.13,NNE,27,1.0,2.0,49,0.00,,,0.00,501,Wunderground v.1.15,2013-01-04 21:06:00,
2013-01-04 13:12:00,56.6,37.6,31.13,NNE,26,1.0,2.0,49,0.00,,,0.00,496,Wunderground v.1.15,2013-01-04 21:12:00,
2013-01-04 13:18:00,56.9,37.9,31.12,NNE,15,2.0,4.0,49,0.00,,,0.00,487,Wunderground v.1.15,2013-01-04 21:18:00,
2013-01-04 13:26:00,56.8,37.3,31.12,NNE,17,2.0,2.0,48,0.00,,,0.00,476,Wunderground v.1.15,2013-01-04 21:26:00,
2013-01-04 13:32:00,56.9,36.9,31.12,NNE,17,1.0,1.0,47,0.00,,,0.00,468,Wunderground v.1.15,2013-01-04 21:32:00,
2013-01-04 13:38:00,56.9,37.4,31.12,NNE,19,1.0,1.0,48,0.00,,,0.00,462,Wunderground v.1.15,2013-01-04 21:38:00,
2013-01-04 13:44:00,57.0,37.0,31.11,NNE,19,1.0,2.0,47,0.00,,,0.00,452,Wunderground v.1.15,2013-01-04 21:44:00,
2013-01-04 13:50:00,57.1,37.0,31.11,NE,49,1.0,2.0,47,0.00,,,0.00,443,Wunderground v.1.15,2013-01-04 21:50:00,
2013-01-04 13:56:00,57.2,36.6,31.11,NE,53,1.0,2.0,46,0.00,,,0.00,432,Wunderground v.1.15,2013-01-04 21:56:00,
2013-01-04 14:02:00,57.3,34.4,31.11,NE,53,1.0,1.0,42,0.00,,,0.00,422,Wunderground v.1.15,2013-01-04 22:02:00,
2013-01-04 14:08:00,57.8,35.4,31.11,NE,52,1.0,2.0,43,0.00,,,0.00,413,Wunderground v.1.15,2013-01-04 22:08:00,
2013-01-04 14:16:00,57.8,34.8,31.11,NE,53,1.0,1.0,42,0.00,,,0.00,397,Wunderground v.1.15,2013-01-04 22:16:00,
2013-01-04 14:22:00,58.2,35.8,31.11,NE,53,1.0,1.0,43,0.00,,,0.00,387,Wunderground v.1.15,2013-01-04 22:22:00,
2013-01-04 14:28:00,59.0,35.9,31.11,NE,52,1.0,2.0,42,0.00,,,0.00,376,Wunderground v.1.15,2013-01-04 22:28:00,
2013-01-04 14:34:00,59.0,35.9,31.11,NE,53,1.0,1.0,42,0.00,,,0.00,366,Wunderground v.1.15,2013-01-04 22:34:00,
2013-01-04 14:40:00,58.7,35.0,31.11,NE,53,1.0,1.0,41,0.00,,,0.00,350,Wunderground v.1.15,2013-01-04 22:40:00,
2013-01-04 14:46:00,58.4,34.8,31.10,NE,53,0.0,1.0,41,0.00,,,0.00,336,Wunderground v.1.15,2013-01-04 22:46:00,
2013-01-04 14:52:00,58.5,34.9,31.10,NE,53,1.0,2.0,41,0.00,,,0.00,325,Wunderground v.1.15,2013-01-04 22:52:00,
2013-01-04 14:58:00,58.4,34.8,31.10,NE,53,1.0,2.0,41,0.00,,,0.00,308,Wunderground v.1.15,2013-01-04 22:58:00,
2013-01-04 15:04:00,58.9,35.2,31.10,NE,53,0.0,0.0,41,0.00,,,0.00,295,Wunderground v.1.15,2013-01-04 23:04:00,
2013-01-04 15:10:00,58.7,35.7,31.10,NE,53,0.0,0.0,42,0.00,,,0.00,281,Wunderground v.1.15,2013-01-04 23:10:00,
2013-01-04 15:16:00,58.6,36.2,31.10,NE,53,0.0,0.0,43,0.00,,,0.00,262,Wunderground v.1.15,2013-01-04 23:16:00,
2013-01-04 15:22:00,59.0,35.9,31.10,NE,53,0.0,0.0,42,0.00,,,0.00,243,Wunderground v.1.15,2013-01-04 23:22:00,
2013-01-04 15:28:00,58.9,35.8,31.10,NE,53,1.0,1.0,42,0.00,,,0.00,225,Wunderground v.1.15,2013-01-04 23:28:00,
2013-01-04 15:34:00,58.5,36.6,31.10,NE,52,1.0,2.0,44,0.00,,,0.00,202,Wunderground v.1.15,2013-01-04 23:34:00,
2013-01-04 15:40:00,58.5,36.6,31.10,NE,52,0.0,0.0,44,0.00,,,0.00,183,Wunderground v.1.15,2013-01-04 23:40:00,
2013-01-04 15:46:00,58.6,36.7,31.10,NE,52,0.0,1.0,44,0.00,,,0.00,162,Wunderground v.1.15,2013-01-04 23:46:00,
2013-01-04 15:52:00,58.9,36.4,31.10,NE,52,0.0,0.0,43,0.00,,,0.00,141,Wunderground v.1.15,2013-01-04 23:52:00,
2013-01-04 15:58:00,59.0,36.5,31.10,NE,53,0.0,0.0,43,0.00,,,0.00,121,Wunderground v.1.15,2013-01-04 23:58:00,
2013-01-04 16:04:00,59.0,36.5,31.10,NE,53,0.0,0.0,43,0.00,,,0.00,107,Wunderground v.1.15,2013-01-05 00:04:00,
2013-01-04 16:10:00,59.0,35.9,31.10,NE,52,0.0,0.0,42,0.00,,,0.00,81,Wunderground v.1.15,2013-01-05 00:10:00,
2013-01-04 16:16:00,59.0,36.5,31.10,NE,53,0.0,0.0,43,0.00,,,0.00,67,Wunderground v.1.15,2013-01-05 00:16:00,
2013-01-04 16:22:00,59.0,37.1,31.09,NE,53,0.0,0.0,44,0.00,,,0.00,49,Wunderground v.1.15,2013-01-05 00:22:00,
2013-01-04 16:28:00,58.7,36.8,31.10,NE,52,0.0,0.0,44,0.00,,,0.00,40,Wunderground v.1.15,2013-01-05 00:28:00,
2013-01-04 16:34:00,58.6,37.3,31.10,NE,53,0.0,0.0,45,0.00,,,0.00,19,Wunderground v.1.15,2013-01-05 00:34:00,
2013-01-04 16:40:00,58.4,37.7,31.10,NE,53,0.0,0.0,46,0.00,,,0.00,16,Wunderground v.1.15,2013-01-05 00:40:00,
2013-01-04 16:46:00,58.1,38.0,31.10,NE,53,0.0,0.0,47,0.00,,,0.00,11,Wunderground v.1.15,2013-01-05 00:46:00,
2013-01-04 16:52:00,57.9,38.3,31.10,NE,53,0.0,0.0,48,0.00,,,0.00,9,Wunderground v.1.15,2013-01-05 00:52:00,
2013-01-04 16:58:00,57.6,38.6,31.10,NE,52,0.0,0.0,49,0.00,,,0.00,7,Wunderground v.1.15,2013-01-05 00:58:00,
2013-01-04 17:04:00,57.1,38.1,31.10,NE,53,0.0,0.0,49,0.00,,,0.00,5,Wunderground v.1.15,2013-01-05 01:04:00,
2013-01-04 17:10:00,55.8,38.4,31.10,NE,52,0.0,0.0,52,0.00,,,0.00,0,Wunderground v.1.15,2013-01-05 01:10:00,
2013-01-04 17:16:00,54.8,38.5,31.10,NE,53,0.0,0.0,54,0.00,,,0.00,0,Wunderground v.1.15,2013-01-05 01:16:00,
2013-01-04 17:22:00,54.2,38.4,31.10,NE,53,0.0,0.0,55,0.00,,,0.00,0,Wunderground v.1.15,2013-01-05 01:22:00,
2013-01-04 17:28:00,53.6,38.3,31.10,NE,52,0.0,0.0,56,0.00,,,0.00,0,Wunderground v.1.15,2013-01-05 01:28:00,
2013-01-04 17:34:00,53.2,38.4,31.10,NE,53,0.0,0.0,57,0.00,,,0.00,0,Wunderground v.1.15,2013-01-05 01:34:00,
2013-01-04 17:40:00,52.7,38.3,31.10,NE,53,0.0,0.0,58,0.00,,,0.00,0,Wunderground v.1.15,2013-01-05 01:40:00,
2013-01-04 17:46:00,52.1,38.2,31.10,NE,52,0.0,0.0,59,0.00,,,0.00,0,Wunderground v.1.15,2013-01-05 01:46:00,
2013-01-04 17:52:00,51.4,38.0,31.10,NE,53,0.0,0.0,60,0.00,,,0.00,0,Wunderground v.1.15,2013-01-05 01:52:00,
2013-01-04 17:58:00,50.8,38.2,31.10,NE,53,0.0,0.0,62,0.00,,,0.00,0,Wunderground v.1.15,2013-01-05 01:58:00,
2013-01-04 18:04:00,50.3,38.2,31.10,NE,53,0.0,0.0,63,0.00,,,0.00,0,Wunderground v.1.15,2013-01-05 02:04:00,
2013-01-04 18:10:00,49.9,37.8,31.11,NE,53,0.0,0.0,63,0.00,,,0.00,0,Wunderground v.1.15,2013-01-05 02:10:00,
2013-01-04 18:16:00,49.4,37.7,31.11,NE,53,0.0,0.0,64,0.00,,,0.00,0,Wunderground v.1.15,2013-01-05 02:16:00,
2013-01-04 18:22:00,49.1,37.4,31.11,NE,53,0.0,0.0,64,0.00,,,0.00,0,Wunderground v.1.15,2013-01-05 02:22:00,
2013-01-04 18:28:00,48.7,37.1,31.11,NE,53,0.0,0.0,64,0.00,,,0.00,0,Wunderground v.1.15,2013-01-05 02:28:00,
2013-01-04 18:34:00,48.3,37.1,31.12,NE,53,0.0,0.0,65,0.00,,,0.00,0,Wunderground v.1.15,2013-01-05 02:34:00,
2013-01-04 18:40:00,47.8,37.0,31.12,NE,53,0.0,0.0,66,0.00,,,0.00,0,Wunderground v.1.15,2013-01-05 02:40:00,
2013-01-04 18:46:00,47.5,36.7,31.12,NE,52,0.0,0.0,66,0.00,,,0.00,0,Wunderground v.1.15,2013-01-05 02:46:00,
2013-01-04 18:52:00,47.2,36.8,31.12,NE,53,0.0,0.0,67,0.00,,,0.00,0,Wunderground v.1.15,2013-01-05 02:52:00,
2013-01-04 18:58:00,46.9,36.9,31.12,NE,53,0.0,0.0,68,0.00,,,0.00,0,Wunderground v.1.15,2013-01-05 02:58:00,
2013-01-04 19:04:00,46.4,36.8,31.12,NE,53,0.0,0.0,69,0.00,,,0.00,0,Wunderground v.1.15,2013-01-05 03:04:00,
2013-01-04 19:10:00,46.0,36.8,31.12,NE,52,0.0,0.0,70,0.00,,,0.00,0,Wunderground v.1.15,2013-01-05 03:10:00,
2013-01-04 19:16:00,45.7,36.8,31.12,NE,53,0.0,0.0,71,0.00,,,0.00,0,Wunderground v.1.15,2013-01-05 03:16:00,
2013-01-04 19:22:00,45.4,36.9,31.12,NE,52,0.0,0.0,72,0.00,,,0.00,0,Wunderground v.1.15,2013-01-05 03:22:00,
2013-01-04 19:28:00,45.2,36.7,31.12,NE,53,0.0,0.0,72,0.00,,,0.00,0,Wunderground v.1.15,2013-01-05 03:28:00,
2013-01-04 19:34:00,45.0,36.5,31.12,NE,52,0.0,0.0,72,0.00,,,0.00,0,Wunderground v.1.15,2013-01-05 03:34:00,
2013-01-04 19:40:00,44.8,36.3,31.12,NE,53,0.0,0.0,72,0.00,,,0.00,0,Wunderground v.1.15,2013-01-05 03:40:00,
2013-01-04 19:46:00,44.6,36.5,31.12,NE,53,0.0,0.0,73,0.00,,,0.00,0,Wunderground v.1.15,2013-01-05 03:46:00,
2013-01-04 19:52:00,44.3,36.5,31.12,NE,53,0.0,0.0,74,0.00,,,0.00,0,Wunderground v.1.15,2013-01-05 03:52:00,
2013-01-04 19:58:00,44.0,36.2,31.12,NE,52,0.0,0.0,74,0.00,,,0.00,0,Wunderground v.1.15,2013-01-05 03:58:00,
2013-01-04 20:06:00,43.7,36.3,31.12,NE,53,0.0,0.0,75,0.00,,,0.00,0,Wunderground v.1.15,2013-01-05 04:06:00,
2013-01-04 20:12:00,43.6,36.5,31.13,NE,52,0.0,0.0,76,0.00,,,0.00,0,Wunderground v.1.15,2013-01-05 04:12:00,
2013-01-04 20:18:00,43.5,36.4,31.13,NE,52,0.0,0.0,76,0.00,,,0.00,0,Wunderground v.1.15,2013-01-05 04:18:00,
2013-01-04 20:24:00,43.4,36.7,31.13,NE,53,0.0,0.0,77,0.00,,,0.00,0,Wunderground v.1.15,2013-01-05 04:24:00,
2013-01-04 20:30:00,43.4,36.7,31.13,NE,52,0.0,0.0,77,0.00,,,0.00,0,Wunderground v.1.15,2013-01-05 04:30:00,
2013-01-04 20:36:00,43.3,36.9,31.13,NE,53,0.0,0.0,78,0.00,,,0.00,0,Wunderground v.1.15,2013-01-05 04:36:00,
2013-01-04 20:42:00,43.2,36.8,31.13,NE,53,0.0,0.0,78,0.00,,,0.00,0,Wunderground v.1.15,2013-01-05 04:42:00,
2013-01-04 20:48:00,43.1,36.7,31.14,NE,53,0.0,0.0,78,0.00,,,0.00,0,Wunderground v.1.15,2013-01-05 04:48:00,
2013-01-04 20:56:00,43.1,36.7,31.14,NE,52,0.0,0.0,78,0.00,,,0.00,0,Wunderground v.1.15,2013-01-05 04:56:00,
2013-01-04 21:00:00,43.1,36.7,31.14,NE,53,0.0,0.0,78,0.00,,,0.00,0,Wunderground v.1.15,2013-01-05 05:00:00,
2013-01-04 21:06:00,43.0,36.6,31.14,NE,53,0.0,0.0,78,0.00,,,0.00,0,Wunderground v.1.15,2013-01-05 05:06:00,
2013-01-04 21:08:00,43.0,36.6,31.14,NE,53,0.0,0.0,78,0.00,,,0.00,0,Wunderground v.1.15,2013-01-05 05:08:00,
2013-01-04 21:12:00,42.9,36.5,31.14,NE,53,0.0,0.0,78,0.00,,,0.00,0,Wunderground v.1.15,2013-01-05 05:12:00,
2013-01-04 21:18:00,42.8,36.4,31.14,NE,53,0.0,0.0,78,0.00,,,0.00,0,Wunderground v.1.15,2013-01-05 05:18:00,
2013-01-04 21:24:00,42.7,36.3,31.14,NE,52,0.0,0.0,78,0.00,,,0.00,0,Wunderground v.1.15,2013-01-05 05:24:00,
2013-01-04 21:30:00,42.5,36.1,31.14,NE,53,0.0,0.0,78,0.00,,,0.00,0,Wunderground v.1.15,2013-01-05 05:30:00,
2013-01-04 21:36:00,42.4,36.0,31.14,NE,52,0.0,0.0,78,0.00,,,0.00,0,Wunderground v.1.15,2013-01-05 05:36:00,
2013-01-04 21:42:00,42.3,35.9,31.14,NE,53,0.0,0.0,78,0.00,,,0.00,0,Wunderground v.1.15,2013-01-05 05:42:00,
2013-01-04 21:48:00,42.2,35.8,31.14,NE,53,0.0,0.0,78,0.00,,,0.00,0,Wunderground v.1.15,2013-01-05 05:48:00,
2013-01-04 21:54:00,42.1,35.7,31.14,NE,52,0.0,0.0,78,0.00,,,0.00,0,Wunderground v.1.15,2013-01-05 05:54:00,
2013-01-04 22:00:00,42.0,36.0,31.14,NE,52,0.0,0.0,79,0.00,,,0.00,0,Wunderground v.1.15,2013-01-05 06:00:00,
2013-01-04 22:06:00,41.8,35.8,31.14,NE,52,0.0,0.0,79,0.00,,,0.00,0,Wunderground v.1.15,2013-01-05 06:06:00,
2013-01-04 22:12:00,41.7,35.7,31.14,NE,53,0.0,0.0,79,0.00,,,0.00,0,Wunderground v.1.15,2013-01-05 06:12:00,
2013-01-04 22:18:00,41.6,35.6,31.14,NE,52,0.0,0.0,79,0.00,,,0.00,0,Wunderground v.1.15,2013-01-05 06:18:00,
2013-01-04 22:24:00,41.4,35.4,31.15,NE,53,0.0,0.0,79,0.00,,,0.00,0,Wunderground v.1.15,2013-01-05 06:24:00,
2013-01-04 22:30:00,41.3,35.3,31.15,NE,52,0.0,0.0,79,0.00,,,0.00,0,Wunderground v.1.15,2013-01-05 06:30:00,
2013-01-04 22:36:00,41.1,35.1,31.15,NE,53,0.0,0.0,79,0.00,,,0.00,0,Wunderground v.1.15,2013-01-05 06:36:00,
2013-01-04 22:42:00,40.8,34.8,31.15,NE,52,0.0,0.0,79,0.00,,,0.00,0,Wunderground v.1.15,2013-01-05 06:42:00,
2013-01-04 22:48:00,40.6,34.6,31.15,NE,52,0.0,0.0,79,0.00,,,0.00,0,Wunderground v.1.15,2013-01-05 06:48:00,
2013-01-04 22:54:00,40.3,34.3,31.15,NE,52,0.0,0.0,79,0.00,,,0.00,0,Wunderground v.1.15,2013-01-05 06:54:00,
2013-01-04 23:00:00,40.1,34.1,31.15,NE,53,0.0,0.0,79,0.00,,,0.00,0,Wunderground v.1.15,2013-01-05 07:00:00,
2013-01-04 23:06:00,39.9,33.9,31.15,NE,53,0.0,0.0,79,0.00,,,0.00,0,Wunderground v.1.15,2013-01-05 07:06:00,
2013-01-04 23:12:00,39.7,33.7,31.15,NE,53,0.0,0.0,79,0.00,,,0.00,0,Wunderground v.1.15,2013-01-05 07:12:00,
2013-01-04 23:18:00,39.7,34.0,31.15,NE,53,0.0,0.0,80,0.00,,,0.00,0,Wunderground v.1.15,2013-01-05 07:18:00,
2013-01-04 23:24:00,39.6,33.9,31.14,NE,52,0.0,0.0,80,0.00,,,0.00,0,Wunderground v.1.15,2013-01-05 07:24:00,
2013-01-04 23:30:00,39.5,33.8,31.14,NE,52,0.0,0.0,80,0.00,,,0.00,0,Wunderground v.1.15,2013-01-05 07:30:00,
2013-01-04 23:36:00,39.4,34.1,31.14,NE,53,0.0,0.0,81,0.00,,,0.00,0,Wunderground v.1.15,2013-01-05 07:36:00,
2013-01-04 23:42:00,39.5,34.5,31.14,NE,53,0.0,0.0,82,0.00,,,0.00,0,Wunderground v.1.15,2013-01-05 07:42:00,
2013-01-04 23:48:00,39.5,34.5,31.14,NE,52,0.0,0.0,82,0.00,,,0.00,0,Wunderground v.1.15,2013-01-05 07:48:00,
2013-01-04 23:56:00,39.4,34.4,31.14,NE,53,0.0,0.0,82,0.00,,,0.00,0,Wunderground v.1.15,2013-01-05 07:56:00,